Guymon, OK

1:08 AM CDT on September 20, 2017 (GMT -0500)
Guymon Municipal

Weather History for KGUY - April, 2013

Change the Weather History Date:

Tuesday, April 16, 2013

  Actual Average Record
Temperature  
Mean Temperature 48 °F 55 °F  
Max Temperature 57 °F 70 °F 88 °F (2002)
Min Temperature 38 °F 40 °F 26 °F (2011)
Degree Days  
Heating Degree Days 17 10  
Month to date heating degree days 231 195  
Since 1 July heating degree days 4022 4243  
Cooling Degree Days 0 0  
Month to date cooling degree days 6 0  
Year to date cooling degree days 6 2  
Moisture  
Dew Point 29 °F    
Average Humidity 63    
Maximum Humidity 82    
Minimum Humidity 43    
Precipitation  
Precipitation 0.00 in 0.05 in 1.68 in (2016)
Month to date precipitation 0.10 0.76  
Year to date precipitation 1.80 3.06  
Snow  
Snow 0.00 in - - ()
Month to date snowfall T  
Since 1 July snowfall 22.0  
Snow Depth 0.00 in    
Sea Level Pressure  
Sea Level Pressure 29.91 in    
Wind  
Wind Speed 14 mph (ENE)    
Max Wind Speed 23 mph    
Max Gust Speed 28 mph    
Visibility 10 miles    
Events      
T = Trace of Precipitation, MM = Missing Value Source: NWS Daily Summary

Daily Weather History Graph

Daily Weather History Graph

Search for Another Location

Airport or City:

Trip Planner

Search our weather history database for the weather conditions in past years. The results will help you decide how hot, cold, wet, or windy it might be!

Date:

Astronomy

Apr. 16, 2013 Rise Set
Actual Time 7:10 AM CDT 8:21 PM CDT
Civil Twilight 6:43 AM CDT 8:48 PM CDT
Nautical Twilight 6:11 AM CDT 9:20 PM CDT
Astronomical Twilight 5:38 AM CDT 9:53 PM CDT
Moon 11:34 AM CDT (4/16) 1:16 AM CDT (4/16)
Length of Visible Light 14h 04m
Length of Day
13h 11m
Waxing Crescent, 33% of the Moon is Illuminated
Apr 16
Waxing Crescent
Apr 18
First Quarter
Apr 25
Full
May 2
Last Quarter
May 9
New

Hourly Weather History & Observations

Time (CDT) Temp. Windchill Dew Point Humidity Pressure Visibility Wind Dir Wind Speed Gust Speed Precip Events Conditions
12:53 AM 42.1 °F 34.9 °F 24.1 °F 49% 29.82 in 10.0 mi ENE 13.8 mph 24.2 mph N/A   Clear
1:53 AM 42.1 °F 34.9 °F 26.1 °F 53% 29.86 in 10.0 mi NE 13.8 mph - N/A   Overcast
2:53 AM 41.0 °F 32.8 °F 26.1 °F 55% 29.86 in 10.0 mi NNE 16.1 mph - N/A   Overcast
3:53 AM 39.9 °F 30.8 °F 23.0 °F 51% 29.87 in 10.0 mi NNE 18.4 mph 26.5 mph N/A   Overcast
4:53 AM 39.9 °F 30.5 °F 21.9 °F 49% 29.88 in 10.0 mi North 19.6 mph - N/A   Overcast
5:15 AM 39.2 °F 29.0 °F 23.0 °F 52% 29.94 in 10.0 mi North 21.9 mph - N/A   Overcast
5:53 AM 39.0 °F 29.6 °F 24.1 °F 55% 29.90 in 10.0 mi NNE 18.4 mph 27.6 mph N/A   Overcast
6:53 AM 37.9 °F 29.6 °F 25.0 °F 60% 29.92 in 10.0 mi NNE 13.8 mph - N/A   Overcast
7:53 AM 37.9 °F 29.2 °F 25.0 °F 60% 29.96 in 10.0 mi NE 15.0 mph - N/A   Overcast
8:53 AM 39.9 °F 32.9 °F 25.0 °F 55% 30.00 in 10.0 mi NE 11.5 mph - N/A   Overcast
9:53 AM 41.0 °F 33.1 °F 25.0 °F 53% 30.00 in 10.0 mi NE 15.0 mph 21.9 mph N/A   Overcast
10:53 AM 43.0 °F 36.4 °F 27.0 °F 53% 30.01 in 10.0 mi NE 12.7 mph - N/A   Overcast
11:49 AM 44.6 °F 38.4 °F 28.4 °F 53% 30.03 in 10.0 mi NE 12.7 mph - N/A   Overcast
11:53 AM 45.0 °F 39.7 °F 28.0 °F 52% 30.01 in 10.0 mi NE 10.4 mph - N/A   Overcast
12:53 PM 48.0 °F - 28.9 °F 48% 29.98 in 10.0 mi ENE 11.5 mph 20.7 mph N/A   Overcast
1:53 PM 50.0 °F - 30.9 °F 48% 29.94 in 10.0 mi East 12.7 mph - N/A   Mostly Cloudy
2:53 PM 53.1 °F - 32.0 °F 45% 29.92 in 10.0 mi East 11.5 mph - N/A   Clear
3:53 PM 54.0 °F - 33.1 °F 45% 29.88 in 10.0 mi SE 12.7 mph 17.3 mph N/A   Clear
4:53 PM 55.9 °F - 33.1 °F 42% 29.85 in 10.0 mi ESE 12.7 mph - N/A   Clear
5:53 PM 55.9 °F - 34.0 °F 44% 29.83 in 10.0 mi ESE 15.0 mph - N/A   Clear
6:53 PM 54.0 °F - 35.1 °F 49% 29.86 in 10.0 mi East 13.8 mph 19.6 mph N/A   Clear
7:53 PM 50.0 °F - 35.1 °F 57% 29.87 in 10.0 mi East 15.0 mph 20.7 mph N/A   Clear
8:53 PM 46.0 °F 39.9 °F 35.1 °F 66% 29.86 in 10.0 mi East 13.8 mph - N/A   Clear
9:53 PM 44.1 °F 38.1 °F 35.1 °F 71% 29.88 in 10.0 mi East 11.5 mph 18.4 mph N/A   Clear
10:53 PM 42.1 °F 35.7 °F 36.0 °F 79% 29.88 in 10.0 mi East 11.5 mph - N/A   Clear
11:39 PM 42.8 °F 36.6 °F 35.6 °F 76% 29.88 in 10.0 mi East 11.5 mph 19.6 mph N/A   Overcast
11:53 PM 43.0 °F 37.2 °F 37.0 °F 80% 29.86 in 10.0 mi East 10.4 mph 19.6 mph N/A   Overcast